CW4635 Weather Reports


time (UTC)temp
C
wind
direction
speed
KPH
gust
KPH
rain 1hr
cm
rain 24hr
cm
rain mn
cm
humidity
%
barometer
mb
20260503213036 22 167 1.6 6.4 0.00 0.00 0.00 51 1011.8
20260503211534 23 110 1.6 9.7 0.00 0.00 0.00 49 1011.9
20260503210031 22 98 3.2 6.4 0.00 0.00 0.00 51 1012.2
20260503204527 21 79 3.2 8.0 0.00 0.00 0.00 54 1012.4
20260503203029 20 131 1.6 6.4 0.00 0.00 0.00 57 1012.6
20260503201521 20 147 3.2 6.4 0.00 0.00 0.00 56 1012.9
20260503200021 20 105 4.8 9.7 0.00 0.00 0.00 55 1012.9
20260503194522 20 117 3.2 11.3 0.00 0.00 0.00 56 1013.0
20260503193019 20 113 4.8 9.7 0.00 0.00 0.00 55 1013.1
20260503191520 20 138 4.8 9.7 0.00 0.00 0.00 58 1013.4
20260503190016 19 119 4.8 11.3 0.00 0.00 0.00 59 1013.5
20260503184512 18 157 6.4 9.7 0.00 0.00 0.00 59 1013.7
20260503183011 17 153 8.0 12.9 0.00 0.00 0.00 62 1013.9
20260503181510 17 196 6.4 12.9 0.00 0.00 0.00 63 1014.0
20260503180017 17 190 6.4 16.1 0.00 0.00 0.00 64 1014.0
20260503174509 17 175 4.8 14.5 0.00 0.00 0.00 62 1014.0
20260503173009 18 184 6.4 11.3 0.00 0.00 0.00 60 1014.1
20260503171507 18 159 8.0 11.3 0.00 0.00 0.00 57 1014.1
20260503081533 15 272 1.6 6.4 0.00 0.00 0.00 67 1014.0
20260503071520 17 264 1.6 8.0 0.00 0.00 0.00 62 1013.8
20260503054515 16 263 3.2 6.4 0.00 0.00 0.00 69 1014.0
20260503053014 16 257 0.0 8.0 0.00 0.00 0.00 68 1014.0
20260503051510 17 253 1.6 6.4 0.00 0.00 0.00 67 1014.0
20260503050025 17 252 0.0 4.8 0.00 0.00 0.00 65 1013.8
20260503044510 17 252 0.0 4.8 0.00 0.00 0.00 65 1013.6
20260503043014 17 252 1.6 4.8 0.00 0.00 0.00 63 1013.6
20260503041510 18 252 3.2 4.8 0.00 0.00 0.00 62 1013.5
20260503040009 18 249 1.6 3.2 0.00 0.00 0.00 61 1013.4
20260503034508 18 249 0.0 1.6 0.00 0.00 0.00 58 1013.2
20260503033008 19 249 0.0 3.2 0.00 0.00 0.00 56 1013.0
20260503031507 20 249 1.6 6.4 0.00 0.00 0.00 53 1013.0
20260503030007 20 244 3.2 4.8 0.00 0.00 0.00 53 1013.0
20260503024508 21 56 1.6 4.8 0.00 0.00 0.00 57 1013.0
20260503023006 22 56 0.0 3.2 0.00 0.00 0.00 54 1013.0
20260503021507 23 56 0.0 4.8 0.00 0.00 0.00 50 1013.1
20260503020004 23 89 1.6 4.8 0.00 0.00 0.00 50 1013.2
20260503014504 24 89 0.0 3.2 0.00 0.00 0.00 49 1013.4
20260503013005 23 89 1.6 3.2 0.00 0.00 0.00 50 1013.4
20260503011605 23 89 1.6 8.0 0.00 0.00 0.00 51 1013.5
20260503010056 23 93 1.6 8.0 0.00 0.00 0.00 51 1013.6
20260503004554 22 148 1.6 4.8 0.00 0.00 0.00 55 1013.6
20260503003051 21 110 1.6 6.4 0.00 0.00 0.00 54 1013.7
20260503001558 21 171 4.8 9.7 0.00 0.00 0.00 53 1013.9
20260503000100 20 173 4.8 12.9 0.00 0.00 0.00 55 1014.1
20260502234548 21 159 6.4 12.9 0.00 0.00 0.00 56 1014.1
20260502233059 20 167 6.4 12.9 0.00 0.00 0.00 57 1014.4
20260502231558 20 184 6.4 11.3 0.00 0.00 0.00 58 1014.6
20260502230040 20 161 6.4 14.5 0.00 0.00 0.00 59 1014.7
20260502224537 20 192 8.0 12.9 0.00 0.00 0.00 60 1014.9
20260502223033 19 168 6.4 12.9 0.00 0.00 0.00 62 1015.1
20260502221529 18 157 6.4 12.9 0.00 0.00 0.00 65 1015.4
20260502220036 18 159 8.0 14.5 0.00 0.00 0.00 63 1015.6
20260502214526 18 141 6.4 11.3 0.00 0.00 0.00 65 1015.7